#timestamp,LO_Frequency,Hit,StdDev 
1646042415.2,286046997.0,N
1646042435.9,286047002.4,N
1646042455.7,286047001.9,N
1646042475.6,286047000.1,N
1646042495.4,286047001.9,N
1646042515.2,286046996.5,N
1646042535.1,286046997.3,N
1646042536.0,286046997.3,N
1646042555.8,286047001.2,N
1646042575.7,286047002.0,N
1646042595.5,286046998.3,N
1646042615.3,286047001.5,N
1646042635.2,286047001.2,N
1646042655.0,286046996.8,N
1646042655.9,286046996.8,N
1646042675.8,286046997.3,N
1646042695.6,286046996.7,N
1646042715.4,286046991.1,Y
1646042735.3,286046993.1,P
1646042755.1,286046992.3,P
1646042775.8,286046990.5,P
1646042795.7,286046985.4,Y
1646042815.5,286046990.2,P
1646042835.4,286046994.8,P
1646042855.2,286046994.8,N
1646042875.0,286046985.5,Y
1646042875.9,286046985.5,P
1646042895.8,286046992.2,N
1646042915.6,286046990.1,N
1646042935.5,286046994.7,N
1646042955.3,286046989.4,Y
1646042975.1,286047004.4,P
1646042995.9,286047001.4,N
1646043015.7,286046996.6,N
1646043035.5,286046996.1,N
1646043055.4,286046996.6,N
1646043075.2,286047000.8,N
1646043095.1,286046998.2,N
1646043096.0,286046998.2,N
1646043115.8,286046991.3,N
1646043135.6,286046983.8,Y
1646043155.5,286046986.0,P
1646043175.3,286046995.9,N
1646043195.1,286046994.1,N
1646043215.9,286046991.7,N
1646043235.7,286046995.6,N
1646043255.6,286046993.4,N
1646043275.4,286046988.8,Y
1646043295.2,286046992.1,P
1646043315.1,286046996.7,P
1646043316.0,286046996.7,N
1646043335.8,286047000.4,N
1646043355.7,286046997.5,N
1646043375.5,286046999.7,N
1646043395.3,286047000.2,N
1646043415.2,286047003.9,N
1646043435.9,286047008.9,N
1646043455.7,286047006.4,N
1646043475.6,286046998.4,N
1646043495.4,286046996.7,N
1646043515.3,286046996.5,N
1646043535.1,286046993.4,N
1646043536.0,286046993.4,N
1646043555.8,286046995.5,N
1646043575.7,286046995.4,N
1646043595.5,286046996.7,N
1646043615.3,286046998.6,N
1646043635.2,286046995.7,N
1646043655.0,286046988.9,N
1646043655.9,286046988.9,N
1646043675.8,286046985.3,Y
1646043695.6,286046995.7,P
1646043715.4,286046990.9,P
1646043735.3,286046990.4,P
1646043755.1,286046989.1,Y
1646043775.8,286046996.7,P
1646043795.7,286046998.2,N
1646043815.5,286046998.5,N
1646043835.4,286047002.6,N
1646043855.2,286047007.0,N
1646043875.0,286047008.8,N
1646043875.9,286047008.8,N
1646043895.8,286047002.0,N
1646043915.6,286046998.8,N
1646043935.4,286047001.0,N
1646043955.3,286046999.9,N
1646043975.1,286046998.2,N
1646043995.9,286046991.4,N
1646044015.7,286046984.6,Y
1646044035.5,286046978.5,P
1646044055.4,286046973.2,N
1646044075.2,286046969.7,N
1646044095.0,286046966.6,N
1646044095.9,286046966.6,N
1646044115.8,286046963.7,Y
1646044135.6,286046984.6,P
1646044155.5,286046981.3,P
1646044175.3,286046983.3,P
1646044195.1,286046986.1,Y
1646044215.9,286047020.2,P
1646044235.7,286047022.2,N
1646044255.6,286047026.7,N
1646044275.4,286047029.9,N
1646044295.2,286047034.4,N
1646044315.1,286047032.4,N
1646044316.0,286047032.4,N
1646044335.8,286047036.9,N
1646044355.7,286047048.2,Y
1646044375.5,286047027.8,P
1646044395.3,286047031.6,P
1646044415.2,286047035.6,P
1646044435.0,286047029.0,Y
1646044435.9,286047029.0,P
1646044455.7,286047003.7,P
1646044475.6,286047006.1,N
1646044495.4,286047007.8,N
1646044515.3,286047012.8,N
1646044535.1,286047012.8,N
1646044536.0,286047012.8,N
1646044555.8,286047013.9,N
1646044575.7,286047009.4,N
1646044595.5,286047012.9,N
1646044615.3,286047013.7,N
1646044635.2,286047014.6,N
1646044655.0,286047016.3,N
1646044655.9,286047016.3,N
1646044675.8,286047012.5,N
1646044725.6,286047015.6,E
1646044735.6,286047010.2,N
1646044755.4,286047005.2,P
1646044775.2,286047003.0,N
1646044795.1,286047003.8,N
1646044796.0,286047003.8,N
1646044815.8,286047001.7,N
1646044835.6,286047003.1,N
1646044855.5,286047003.4,N
1646044875.3,286047007.4,Y
1646044895.2,286047002.3,P
1646044915.9,286047001.6,N
1646044935.7,286047002.0,N
1646044955.6,286047001.3,N
1646044975.4,286047005.6,Y
1646044995.2,286047000.3,P
1646045015.1,286047001.1,N
1646045016.0,286047001.1,N
1646045035.8,286046998.5,N
1646045055.7,286047004.5,Y
1646045075.5,286047006.5,P
1646045095.3,286046999.8,N
1646045115.2,286047005.9,N
1646045135.0,286047005.6,N
1646045135.9,286047005.6,N
1646045155.7,286047005.4,N
1646045175.6,286047004.9,N
1646045195.4,286047007.5,Y
1646045215.3,286046999.3,P
1646045235.1,286046993.7,N
1646045255.8,286046998.2,N
1646045275.7,286047000.9,N
1646045295.5,286047001.1,N
1646045315.4,286046998.6,N
1646045335.2,286047001.4,N
1646045355.0,286047002.0,N
1646045355.9,286047002.0,N
1646045375.8,286046999.4,N
1646045395.6,286046993.5,N
1646045415.4,286047002.3,N
1646045435.3,286047004.8,N
1646045455.1,286047001.9,N
1646045475.8,286047002.2,N
1646045495.7,286046998.4,N
1646045515.5,286046998.6,N
1646045535.4,286046999.6,N
1646045555.2,286047000.2,N
1646045575.0,286046998.4,N
1646045575.9,286046998.4,N
1646045595.8,286046995.6,N
1646045615.6,286046999.3,N
1646045635.4,286046994.9,N
1646045655.3,286046995.0,N
1646045675.1,286046997.4,N
1646045695.9,286046995.5,N
1646045715.7,286046999.5,N
1646045735.5,286047000.4,N
1646045755.4,286047002.4,N
1646045775.2,286047001.7,N
1646045795.0,286047001.9,N
1646045795.9,286047001.9,N
1646045815.8,286046999.4,N
1646045835.6,286046997.3,N
1646045855.5,286047004.0,N
1646045875.3,286047003.3,N
1646045895.1,286047002.4,N
1646045915.9,286047003.9,N
1646045935.7,286047006.0,N
1646045955.5,286047003.8,N
1646045975.4,286046995.1,N
1646045995.2,286046998.2,N
